Location: Byszew
(52.1813°N, 19.2693°E)
Time: 21:30:46
(UTC+00:00)

Cosmos 1932 - Pass Details

Date: 03 March 2021
Orbit: 936 x 994 km, 65.0° (Epoch: 15 April)

Event Time Altitude Azimuth Distance (km) Brightness Sun altitude
Rises 17:24:34 0° 214° (SW) 3,695 8.0 -9.7°
Reaches altitude 10° 17:27:08 10° 213° (SSW) 2,745 7.3 -10.1°
Maximum altitude 17:33:35 78° 129° (SE) 1,008 4.5 -11.1°
Drops below altitude 10° 17:39:58 10° 44° (NE) 2,726 6.5 -12.1°
Sets 17:42:32 0° 43° (NE) 3,668 7.1 -12.5°
